Weather History for Ballenas Island, BC

Change the Weather History Date:

Thursday, October 10, 2013

  Actual Average Record
Temperature  
Mean Temperature 52 °F -  
Max Temperature 54 °F - - ()
Min Temperature 49 °F - - ()
Degree Days  
Heating Degree Days 14    
Growing Degree Days 2 (Base 50)    
Moisture  
Dew Point 46 °F    
Average Humidity 80    
Maximum Humidity 94    
Minimum Humidity 62    
Precipitation  
Precipitation 0.12 in - - ()
Sea Level Pressure  
Sea Level Pressure 29.97 in    
Wind  
Wind Speed 8 mph ()    
Max Wind Speed 20 mph    
Max Gust Speed -    
T = Trace of Precipitation, MM = Missing Value Source: Averaged Metar Reports

Daily Weather History Graph

Daily Weather History Graph

Search for Another Location

Airport:

Trip Planner

Search our weather history database for the weather conditions in past years. The results will help you decide how hot, cold, wet, or windy it might be!

Date:

Astronomy

Oct. 10, 2013 Rise Set
Actual Time 7:30 AM PDT 6:35 PM PDT
Civil Twilight 6:58 AM PDT 7:07 PM PDT
Nautical Twilight 6:21 AM PDT 7:44 PM PDT
Astronomical Twilight 5:44 AM PDT 8:21 PM PDT
Moon 1:47 PM PDT (10/10) 11:00 PM PDT (10/10)
Length of Visible Light 12h 09m
Length of Day
11h 05m
Waxing Crescent, 37% of the Moon is Illuminated
Oct 10
Waxing Crescent
Oct 11
First Quarter
Oct 18
Full
Oct 26
Last Quarter
Nov 3
New

Hourly Weather History & Observations

Time (PDT) Temp. Dew Point Humidity Pressure Visibility Wind Dir Wind Speed Gust Speed Precip Events Conditions
12:00 AM 52.0 °F 47.1 °F 83% 29.93 in - East 4.6 mph - N/A   Unknown
1:00 AM 51.4 °F 46.9 °F 85% 29.92 in - SE 4.6 mph - N/A   Unknown
2:00 AM 52.0 °F 46.6 °F 82% 29.92 in - East 5.8 mph - N/A   Unknown
3:00 AM 51.8 °F 46.9 °F 83% 29.92 in - East 3.5 mph - N/A   Unknown
4:00 AM 51.1 °F 47.3 °F 87% 29.91 in - WNW 3.5 mph - N/A   Unknown
5:00 AM 51 °F 48 °F 87% 29.93 in - West 5.8 mph - -  
5:00 AM 51.3 °F 48.4 °F 90% 29.93 in - West 5.8 mph - N/A   Unknown
6:00 AM 49.8 °F 47.5 °F 92% 29.93 in - SW 6.9 mph - N/A   Unknown
7:00 AM 49.6 °F 47.8 °F 94% 29.93 in - WSW 10.4 mph - 0.05 in   Unknown
8:00 AM 50.4 °F 48.4 °F 93% 29.93 in - West 19.6 mph - 0.03 in   Unknown
9:00 AM 49.8 °F 47.3 °F 91% 29.95 in - NW 11.5 mph - N/A   Unknown
10:00 AM 50.4 °F 46.6 °F 87% 29.97 in - West 15.0 mph - 0.02 in   Unknown
11:00 AM 51 °F 45 °F 74% 29.98 in - WNW 16.1 mph - -  
11:00 AM 51.3 °F 45.3 °F 80% 29.98 in - WNW 16.1 mph - N/A   Unknown
12:00 PM 51.6 °F 45.7 °F 80% 29.99 in - WNW 16.1 mph - N/A   Unknown
1:00 PM 52.0 °F 44.4 °F 75% 29.99 in - WNW 16.1 mph - N/A   Unknown
2:00 PM 52.2 °F 42.8 °F 70% 29.99 in - West 15.0 mph - N/A   Unknown
3:00 PM 52.7 °F 44.1 °F 72% 29.99 in - West 10.4 mph - N/A   Unknown
4:00 PM 53.4 °F 43.9 °F 70% 29.99 in - WSW 11.5 mph - N/A   Unknown
5:00 PM 53 °F 44 °F 62% 29.99 in - West 11.5 mph - -  
5:00 PM 53.4 °F 43.9 °F 70% 29.99 in - West 11.5 mph - N/A   Unknown
6:00 PM 53.6 °F 43.5 °F 69% 29.98 in - West 11.5 mph - N/A   Unknown
7:00 PM 53.4 °F 43.2 °F 68% 29.99 in - WSW 11.5 mph - N/A   Unknown
8:00 PM 51.3 °F 44.4 °F 77% 30.00 in - SW 11.5 mph - N/A   Unknown
9:00 PM 49.8 °F 44.1 °F 81% 30.01 in - WSW 15.0 mph - N/A   Unknown
10:00 PM 49.8 °F 43.5 °F 79% 30.04 in - WSW 12.7 mph - N/A   Unknown
11:00 PM 50 °F 44 °F 74% 30.04 in - WSW 10.4 mph - -  
11:00 PM 50.0 °F 44.2 °F 81% 30.04 in - WSW 10.4 mph - N/A   Unknown